Location: Walsall
(52.5862°N, 1.9829°W)
Time: 01:27:34
(UTC+01:00)

X-37B - Pass Details

Date: 29 June 2021
Orbit: 383 x 392 km, 45.0° (Epoch: 01 July)

Event Time Altitude Azimuth Distance (km) Brightness Sun altitude
Rises 23:40:12 0° 259° (W) 2,258 4.6 -11.7°
Reaches altitude 10° 23:42:59 10° 232° (SW) 1,402 3.2 -11.8°
Enters shadow 23:44:32 14° 202° (SSW) 1,197 2.6 -11.9°
